Portada
METAR-TAF:

METAR-TAF

Aeroports :

Malden, Missouri, Estats Units d'Amèrica

latitud: 36-35-54N, longitud: 089-59-33W, altitud: 90 m

Observació

L'informe es va fer fa 11 minuts, a les 19:15 UTC
Vent 6 kt del Sud amb ràfegues de 14 kt
Temperatura 28°C
Humitat 51%
Pressió 1020 hPa
Visibilitat: 16.1 km
Núvols disperses a una alçada de 4100 ft

METAR: KMAW 211915Z AUTO 17006G14KT 10SM SCT041 28/17 A3011 RMK AO2

Hora: 14:26 (19:26 UTC)


TAF: manca

Observacions i pronòstics meteorològics de més de 4000 aeroports (METAR i TAF).

Les estacions disponibles són els punts grocs i vermells al mapa.

Posi el ratolí al punt desitjat per veure el nom de l'estació.

Feu clic per veure les observacions i els pronòstics meteorològics.

Per canviar el mapa: feu clic els botons verds amb una creu de color negre per apropar; al botó verd amb un guió per allunyar la imatge; o en les fletxes verdes per a mapes adjacents.


METAR-TAF: